SCP
0 0 0 0 0 0 0 0 0 0 0 0 -0 0 0 0 0 0 0 0 0 -0 -0 -0 -0 -0 -1 -1 -0 -0 -0 0 0 0 0 0 0 0 0 0 0 0 0 -0 -0 0 0 0 0
0 0 0 0 0 0 0 0 0 0 0 -0 -0 0 0 0 0 0 0 0 0 -0 -0 -0 -0 -0 -0 -0 -0 -0 0 0 0 0 0 0 0 0 0 0 0 -0 -0 -0 -0 0 0 0 0
0 0 0 0 0 0 0 0 0 0 0 0 0 0 0 0 -0 0 -0 0 0 0 0 0 -0 0 -0 -0 -0 -0 0 0 0 0 0 0 0 0 0 0 0 -0 -0 -0 -0 0 0 0 0
0 0 0 0 0 0 -0 0 0 0 0 0 0 0 0 -0 0 -0 -0 0 0 0 0 0 0 0 0 -0 -0 -0 0 0 0 0 0 0 0 0 0 0 0 -0 -0 -0 -0 -0 0 0 0
0 0 0 0 0 0 0 0 0 0 0 0 0 -0 0 0 -0 -0 -0 0 0 0 0 1 0 0 0 0 -0 -0 0 0 0 0 0 0 0 0 0 0 0 0 -0 0 0 0 0 0 0
0 0 0 0 0 0 0 0 0 0 -0 0 0 -0 -0 0 0 -0 0 -0 0 0 1 1 1 0 0 0 0 0 0 -0 0 -0 -0 -0 -0 -0 -0 0 0 0 -0 0 0 0 0 0 0
0 0 0 0 0 0 0 0 0 -0 0 0 0 -0 0 0 0 -0 -0 0 0 1 1 2 2 1 0 0 0 0 0 0 -0 -0 -0 -0 -0 -0 -0 -0 0 -0 -0 0 0 0 0 0 0
0 0 0 0 0 0 0 0 0 0 0 -0 -0 -0 0 0 0 0 0 0 0 1 1 2 2 2 1 1 0 0 0 0 -0 -0 -0 -0 -0 -0 -0 -0 -0 -0 -0 0 0 0 0 0 0
0 0 0 0 0 0 0 -0 0 0 0 0 0 0 0 0 0 0 0 1 1 2 1 1 2 2 1 1 1 1 1 0 0 -0 -0 -0 -0 -0 -0 -0 -0 -0 0 0 -0 -0 0 0 0
0 0 0 0 0 0 -0 0 0 0 0 0 0 0 0 0 0 0 0 2 1 1 1 1 1 2 2 2 1 1 1 1 0 0 0 -0 -0 -0 -0 -0 -0 0 0 0 -0 -0 -0 0 0
0 0 0 0 0 0 0 0 0 0 0 0 0 0 0 0 0 0 0 0 1 1 1 1 1 1 3 3 2 2 2 1 1 0 0 0 0 -0 -0 -0 -0 0 0 0 0 0 0 0 0
0 0 0 0 0 0 0 0 0 0 0 0 0 -0 0 0 0 0 0 0 2 1 1 0 1 1 1 3 3 2 1 1 1 1 0 0 0 0 0 -0 -0 0 0 0 0 0 0 0 0
0 0 0 0 0 0 0 0 0 0 0 0 0 0 0 0 0 0 0 0 0 1 1 0 1 1 1 2 2 2 2 1 1 1 0 0 0 0 0 0 0 0 0 0 0 0 0 0 0
0 0 0 0 0 0 0 0 0 0 -0 0 0 0 0 0 0 0 0 0 0 0 0 0 1 1 1 2 1 1 1 1 1 1 0 0 0 0 0 0 0 0 0 0 0 0 0 0 0
0 0 0 0 0 0 0 0 0 0 -0 -0 0 0 0 0 0 0 0 0 0 0 0 0 1 1 1 1 1 1 1 1 1 1 0 0 0 0 0 0 0 0 0 0 0 0 0 0 0
0 0 0 0 0 0 0 0 -0 0 0 0 -0 0 0 0 0 0 0 0 0 0 0 0 2 1 1 2 2 1 1 1 1 1 1 1 1 0 0 0 0 0 0 0 0 0 0 0 0
0 0 0 0 0 0 0 0 0 0 0 0 0 0 0 0 0 0 0 0 0 0 0 0 1 2 2 3 4 3 2 1 1 1 1 1 1 1 1 0 0 1 0 0 0 0 0 0 0
0 0 0 0 0 0 0 0 0 0 0 0 0 0 0 0 0 0 0 0 0 0 0 0 0 1 2 3 4 3 4 3 3 1 1 1 2 1 1 1 1 1 1 0 0 0 0 0 0
0 0 0 0 0 0 0 0 0 -0 0 0 0 0 0 0 0 0 0 0 0 0 0 0 0 0 1 3 3 4 3 4 4 2 1 3 3 2 2 2 2 2 1 1 0 0 0 0 0
0 0 0 0 0 0 0 0 0 -0 -0 0 0 0 0 0 0 0 0 0 0 0 0 0 0 0 0 4 4 3 2 2 2 4 2 1 2 3 1 2 2 2 2 1 0 0 0 0 0
0 0 0 0 0 0 0 0 0 0 -0 0 0 0 0 0 0 0 0 0 0 0 0 0 0 0 0 0 1 4 4 5 3 1 2 2 1 1 3 3 2 2 2 2 1 0 0 0 0
0 0 0 0 0 0 0 0 0 0 0 0 0 0 0 0 0 0 0 0 0 0 0 0 0 0 0 0 0 1 2 3 3 2 2 4 2 1 1 3 3 3 3 2 1 1 0 0 0
0 0 0 0 0 0 0 0 0 0 0 0 0 0 0 0 0 0 0 0 0 0 0 0 0 0 0 0 0 0 0 0 1 0 1 3 3 2 1 1 1 3 2 1 2 1 1 0 0
0 0 0 0 0 0 0 0 0 0 0 -0 0 0 0 -0 0 0 0 0 0 0 0 0 0 0 0 0 0 0 0 0 0 0 1 1 3 3 2 2 2 2 2 2 1 1 1 1 0
0 0 0 0 0 0 0 0 0 0 0 0 0 0 -0 -0 0 0 0 0 0 0 0 0 0 0 0 0 0 0 0 0 0 0 0 0 0 0 2 3 3 2 1 3 2 1 0 0 0
0 0 0 0 0 0 0 0 0 0 0 0 0 0 0 -0 0 0 0 0 0 0 0 0 0 0 0 0 0 0 0 0 0 0 0 0 0 0 0 1 3 3 3 3 3 3 2 2 1
0 0 0 0 0 0 0 0 0 0 0 0 0 0 0 0 0 0 0 0 0 0 0 0 0 0 0 0 0 0 0 0 0 0 0 0 0 0 0 0 0 1 3 3 3 1 1 1 1
0 0 0 0 0 0 0 0 0 0 0 0 0 0 0 0 0 0 0 0 0 0 0 0 0 0 0 0 0 0 0 0 0 0 0 0 0 0 0 0 0 0 0 0 2 2 1 1 0
0 0 0 0 0 0 0 0 0 0 0 0 0 0 0 0 0 0 0 0 0 0 0 0 0 0 0 0 0 0 0 0 0 0 0 0 0 1 1 1 1 0 0 1 0 0 1 1 1
0 0 0 0 0 0 0 0 -0 -0 0 0 0 0 0 0 0 0 0 0 0 0 0 0 0 0 0 0 0 0 0 0 0 0 0 0 0 0 0 0 0 0 1 0 0 0 1 1 1
Wind_Speed_500mb
21 20 25 10 7 8 10 7 8 15 14 27 29 26 13 14 10 9 17 43 30 52 52 59 61 58 55 52 49 48 49 49 51 52 52 51 47 41 37 34 32 29 27 25 24 24 22 21 20
19 22 9 2 8 2 10 8 14 9 21 26 25 39 35 7 31 26 32 42 36 34 51 58 62 61 57 56 54 52 52 53 55 55 54 50 45 41 37 33 30 27 24 22 21 20 20 19 18
23 22 6 7 6 11 8 6 11 43 27 24 11 14 8 7 20 16 31 35 36 33 44 55 62 62 61 61 62 57 55 54 55 55 52 48 44 40 35 32 29 25 23 20 17 15 14 13 13
16 6 3 6 15 22 1 14 14 20 27 45 27 11 11 13 4 15 23 23 23 30 45 50 61 63 62 65 66 63 59 55 53 52 50 47 43 40 36 31 27 23 19 16 13 10 8 7 6
12 5 2 5 13 17 14 19 27 13 6 26 43 15 18 25 16 18 12 22 24 28 38 50 59 64 63 65 66 65 59 57 54 50 48 45 42 38 34 30 26 22 18 14 9 5 3 2 1
6 1 4 9 14 12 16 36 26 16 43 48 9 16 9 21 18 11 6 18 24 23 41 52 60 64 65 64 65 65 62 57 54 51 46 43 40 36 32 27 23 20 16 11 7 1 3 6 8
10 6 8 9 10 20 22 25 29 31 37 50 18 11 12 14 23 20 13 9 23 35 44 56 61 68 68 65 65 64 60 57 54 51 47 43 38 35 30 26 21 18 14 10 6 3 7 9 12
10 8 8 10 13 17 38 20 32 42 52 67 8 12 10 18 16 26 5 10 28 31 44 56 63 71 73 70 66 64 60 56 52 49 46 44 39 35 31 26 20 16 12 10 6 6 11 13 15
11 3 12 13 13 13 55 11 43 48 35 62 53 13 29 32 25 22 13 19 25 40 47 60 64 70 74 74 69 64 61 58 54 50 46 44 41 36 30 25 21 16 13 12 10 10 14 18 19
13 8 13 9 10 13 45 37 45 24 49 19 31 15 26 34 33 26 24 22 23 36 54 56 67 69 74 74 73 70 67 64 58 53 48 43 39 36 30 26 22 19 16 15 15 18 19 23 24
11 15 9 20 37 46 47 62 51 25 17 38 28 40 30 32 31 31 24 16 20 30 55 56 61 69 72 78 78 74 72 68 63 57 51 46 42 39 35 32 27 23 19 18 18 20 24 24 23
12 28 38 43 58 52 37 65 55 35 42 36 38 39 28 37 35 24 20 14 30 30 39 49 49 60 70 72 78 77 73 70 67 63 57 54 49 45 41 37 31 26 22 18 10 10 11 15 16
10 14 45 60 64 62 69 56 55 69 43 38 44 49 49 34 29 30 22 19 32 30 31 37 49 54 61 72 77 79 75 71 69 65 63 60 56 52 47 43 37 31 25 20 15 12 11 12 16
14 19 31 32 43 46 34 46 54 85 28 20 24 36 39 46 28 42 44 31 25 27 30 24 35 46 45 56 68 72 71 66 64 65 66 65 62 58 54 49 44 38 31 22 20 20 18 22 22
23 14 17 10 13 11 22 16 27 49 48 27 33 39 41 49 50 55 39 43 49 35 30 28 31 45 42 43 51 59 64 51 49 58 64 65 63 61 57 52 48 44 36 28 28 28 26 30 35
11 7 8 9 13 21 7 31 33 63 49 69 44 41 48 48 54 64 45 51 58 48 46 37 40 49 50 48 49 51 45 52 59 48 52 61 60 60 58 54 52 49 42 37 37 38 36 39 43
9 10 17 17 12 10 10 34 23 54 58 57 77 64 47 50 48 65 64 60 61 55 53 49 42 57 65 60 58 54 45 46 51 58 51 47 47 47 48 49 48 43 48 45 43 45 41 40 43
11 9 13 14 14 8 16 25 32 50 41 57 73 84 70 42 46 60 69 70 65 61 63 63 47 55 65 66 70 63 59 55 49 57 63 58 54 50 47 43 40 36 43 46 48 50 46 39 38
16 24 31 31 18 5 13 15 27 26 36 44 60 63 59 45 39 48 55 70 71 74 74 72 52 61 67 74 76 69 64 64 67 67 64 72 53 55 43 45 43 44 44 49 49 52 55 52 46
27 31 32 19 12 9 18 22 29 18 19 31 39 31 25 18 33 44 45 47 58 73 69 68 63 53 54 65 69 68 59 63 74 81 72 60 49 55 54 58 53 50 43 46 48 50 60 61 57
21 13 14 21 11 8 11 20 23 30 18 43 36 30 28 30 40 48 50 56 60 71 74 70 61 56 49 49 57 61 62 57 59 78 76 76 70 59 54 58 57 56 42 47 53 50 57 67 69
10 11 25 27 15 21 12 26 16 16 16 15 35 36 40 44 39 57 63 72 75 71 66 59 47 41 41 46 47 55 57 63 61 59 70 53 51 49 58 60 72 44 53 46 41 52 62 74 75
11 6 7 15 23 8 12 4 22 8 19 20 21 40 40 51 58 65 74 73 71 63 58 51 44 41 42 44 47 46 42 55 55 59 64 72 74 77 69 55 62 66 58 41 45 49 58 57 67
6 2 6 5 5 15 27 10 28 20 22 12 14 51 64 67 65 58 84 82 68 57 49 43 37 34 33 36 39 44 50 48 54 54 60 70 62 52 70 83 82 77 77 90 67 59 56 59 68
18 13 9 8 5 27 24 13 33 21 17 25 27 40 61 79 67 56 80 79 65 53 39 32 27 21 25 36 39 40 46 54 55 50 47 50 53 57 64 72 86 80 80 94 97 81 71 78 83
6 10 7 11 9 18 11 17 36 9 27 47 32 29 58 70 59 68 101 81 62 44 40 31 29 23 20 18 17 25 30 37 41 46 53 51 56 55 51 50 57 73 78 67 77 83 74 76 93
7 9 7 6 5 7 9 16 30 38 25 16 22 13 59 6 66 83 70 57 49 49 43 35 34 31 28 25 27 20 16 17 23 32 35 39 42 43 46 46 41 42 44 59 60 59 62 79 69
6 5 2 2 6 11 10 9 15 13 15 16 16 22 30 26 42 64 66 53 46 41 40 38 38 41 38 32 30 29 26 23 21 21 21 23 24 25 30 36 39 43 47 50 53 66 65 63 81
2 0 7 3 6 7 10 9 10 4 10 7 5 11 14 27 15 34 38 38 37 38 40 41 52 52 44 35 30 37 35 29 31 29 26 26 26 27 28 30 36 42 44 49 54 57 65 68 75
6 9 10 7 6 8 3 14 29 19 18 13 4 19 32 7 3 21 17 22 41 45 51 50 52 56 46 43 44 37 37 40 39 36 33 33 34 38 38 37 40 46 46 48 53 57 58 70 70
Wind_Direction_500mb
323 332 331 309 55 69 255 281 228 312 16 28 72 74 75 34 147 186 160 179 168 164 163 164 163 161 159 155 153 152 149 149 147 148 149 151 148 143 138 131 124 117 114 113 109 103 98 95 94
324 327 344 7 93 110 262 220 7 291 303 96 76 89 71 71 84 116 141 173 154 164 165 166 164 163 161 156 152 150 148 145 144 145 146 146 143 140 135 130 124 120 116 109 103 99 95 92 91
312 322 306 112 142 207 207 89 332 322 325 18 69 70 74 104 97 107 122 135 150 162 171 169 167 165 164 159 154 153 151 149 148 147 147 145 144 140 136 132 129 127 120 113 104 97 94 91 90
320 312 219 113 233 258 245 319 296 326 346 11 37 42 55 104 63 135 138 139 151 161 173 173 170 168 168 162 158 157 155 155 153 151 150 149 147 144 141 140 136 133 124 119 113 104 93 98 99
302 258 33 243 251 272 286 284 290 289 266 331 65 80 82 91 89 83 148 175 171 167 176 178 174 172 171 167 164 162 162 161 159 157 155 154 152 150 148 147 145 141 136 127 117 95 64 3 8
271 215 121 231 258 273 303 302 302 278 301 304 44 95 85 102 155 122 104 169 186 186 178 181 177 176 174 173 170 170 169 167 165 162 162 161 159 157 156 155 155 152 148 145 135 96 323 314 309
170 100 207 229 270 296 279 317 313 321 281 275 286 138 141 134 62 147 142 205 196 192 184 180 182 180 178 178 177 177 176 174 171 170 169 168 168 165 165 167 168 168 168 173 173 241 288 302 305
217 125 208 221 246 268 277 315 299 320 304 284 260 164 200 158 121 110 147 182 208 188 194 185 184 185 182 181 183 184 183 183 180 178 178 176 177 177 176 178 184 188 196 207 226 279 302 312 312
199 124 222 224 228 262 287 297 294 308 295 217 255 261 216 166 172 138 105 162 181 189 194 190 188 190 189 186 185 188 191 190 189 188 188 187 186 186 188 190 199 210 226 246 264 290 306 305 309
179 192 226 211 248 261 280 280 294 320 301 284 220 220 167 176 182 169 111 125 189 184 187 193 192 195 194 193 191 190 194 197 197 196 196 197 197 196 198 205 214 225 241 261 281 291 297 303 314
207 233 244 267 260 265 270 278 282 262 278 281 255 237 190 183 186 189 170 132 154 188 190 191 197 198 200 200 199 196 198 199 201 202 203 204 207 207 208 213 221 234 250 266 283 289 293 304 306
248 261 242 251 254 254 262 273 273 257 253 274 283 285 236 175 171 166 151 155 147 171 191 202 201 203 204 209 208 206 204 205 206 206 207 210 211 215 217 221 227 237 246 252 266 300 305 322 325
187 259 256 253 251 250 255 260 265 268 257 257 274 281 278 217 207 215 213 153 150 163 177 191 209 207 213 210 210 214 211 212 213 212 212 214 216 218 222 225 231 235 236 233 252 275 283 300 311
296 289 284 280 269 263 256 266 267 266 255 229 258 260 283 244 239 214 221 217 196 193 186 205 204 212 214 216 216 214 217 219 223 223 222 219 220 223 225 229 233 237 238 241 258 273 277 284 291
311 311 314 276 256 247 276 276 252 273 285 270 266 268 266 248 250 221 214 230 222 216 216 216 227 207 208 215 213 219 220 220 227 233 233 231 227 225 230 235 240 244 247 251 259 269 276 285 293
339 360 330 284 311 292 187 267 272 280 282 285 272 263 252 249 248 224 236 245 233 218 225 213 215 216 211 209 211 214 218 228 228 226 228 231 231 232 232 235 243 247 249 252 261 268 274 279 286
338 261 285 305 257 253 182 277 265 275 265 260 272 268 237 234 238 237 237 236 229 226 224 223 208 210 204 208 211 214 223 231 231 228 222 218 222 226 230 235 240 245 246 247 253 261 261 270 275
249 265 263 272 288 212 264 257 272 280 259 250 250 258 256 237 232 227 232 227 220 226 223 225 203 201 203 209 212 215 226 230 229 229 226 221 217 218 225 235 240 241 249 252 250 254 252 258 265
246 260 265 274 263 273 246 263 285 282 292 270 240 235 251 258 257 227 229 225 216 217 216 219 209 201 204 207 216 222 229 225 227 237 227 228 224 224 227 241 246 248 254 263 265 264 260 263 271
249 252 260 263 252 252 289 278 284 285 264 259 233 215 217 250 202 201 206 202 208 213 213 217 219 216 214 218 220 225 232 238 221 218 216 212 214 232 249 247 249 249 255 263 263 270 266 264 267
260 241 262 263 265 271 328 294 292 291 267 273 235 241 251 240 211 202 201 200 207 211 213 216 220 221 224 228 231 231 232 239 234 227 222 228 229 243 242 250 257 249 256 260 267 269 271 271 274
295 352 7 327 298 277 166 271 276 273 295 286 281 289 271 263 249 221 217 198 202 205 206 211 212 213 225 231 236 241 239 238 237 237 232 225 211 225 250 245 246 242 262 267 269 272 273 269 274
253 347 2 344 326 290 249 204 268 330 293 279 287 297 295 296 294 249 220 214 199 190 194 201 207 215 226 239 237 243 246 240 241 246 249 235 237 243 234 242 253 243 251 266 275 273 280 286 288
275 335 358 7 61 277 294 207 268 254 258 266 264 289 297 299 293 254 214 197 179 177 187 198 210 224 234 239 245 250 249 247 245 245 246 242 237 243 240 237 236 261 255 251 263 271 285 292 299
48 46 333 331 290 261 260 262 250 270 264 243 260 299 304 289 282 227 191 171 170 178 195 202 213 217 230 241 249 245 240 239 239 237 236 237 241 244 243 244 242 245 258 258 257 265 273 274 276
124 140 180 242 254 283 10 252 255 284 296 264 265 283 334 290 218 191 175 174 178 182 184 187 187 196 203 214 248 252 244 237 241 246 248 246 244 241 241 245 248 246 242 247 254 259 251 258 257
144 179 172 223 324 286 234 275 276 273 283 264 234 6 347 218 167 166 171 178 182 182 182 186 190 202 210 229 254 242 245 246 257 253 249 246 243 245 241 241 248 246 241 239 242 255 253 245 241
152 153 208 285 264 258 268 261 254 359 355 13 352 39 16 327 168 173 179 187 187 186 186 189 196 208 221 236 230 241 242 254 259 257 256 258 255 253 249 247 256 256 254 254 244 246 251 243 239
248 99 30 204 184 225 269 267 325 323 280 73 32 357 1 338 159 158 160 167 172 184 194 201 205 210 224 225 235 237 239 251 251 256 263 268 271 279 281 270 264 270 263 261 263 261 257 264 263
141 167 162 156 259 230 231 241 258 246 289 301 343 181 229 326 18 342 341 222 188 197 200 208 213 217 230 226 224 228 237 243 247 248 258 261 268 274 279 281 278 276 274 272 269 268 259 258 263
Wind_Speed_850mb
21 20 25 10 7 8 10 7 8 15 14 27 29 26 13 14 10 9 17 43 30 52 52 59 61 58 55 52 49 48 49 49 51 52 52 51 47 41 37 34 32 29 27 25 24 24 22 21 20
19 22 9 2 8 2 10 8 14 9 21 26 25 39 35 7 31 26 32 42 36 34 51 58 62 61 57 56 54 52 52 53 55 55 54 50 45 41 37 33 30 27 24 22 21 20 20 19 18
23 22 6 7 6 11 8 6 11 43 27 24 11 14 8 7 20 16 31 35 36 33 44 55 62 62 61 61 62 57 55 54 55 55 52 48 44 40 35 32 29 25 23 20 17 15 14 13 13
16 6 3 6 15 22 1 14 14 20 27 45 27 11 11 13 4 15 23 23 23 30 45 50 61 63 62 65 66 63 59 55 53 52 50 47 43 40 36 31 27 23 19 16 13 10 8 7 6
12 5 2 5 13 17 14 19 27 13 6 26 43 15 18 25 16 18 12 22 24 28 38 50 59 64 63 65 66 65 59 57 54 50 48 45 42 38 34 30 26 22 18 14 9 5 3 2 1
6 1 4 9 14 12 16 36 26 16 43 48 9 16 9 21 18 11 6 18 24 23 41 52 60 64 65 64 65 65 62 57 54 51 46 43 40 36 32 27 23 20 16 11 7 1 3 6 8
10 6 8 9 10 20 22 25 29 31 37 50 18 11 12 14 23 20 13 9 23 35 44 56 61 68 68 65 65 64 60 57 54 51 47 43 38 35 30 26 21 18 14 10 6 3 7 9 12
10 8 8 10 13 17 38 20 32 42 52 67 8 12 10 18 16 26 5 10 28 31 44 56 63 71 73 70 66 64 60 56 52 49 46 44 39 35 31 26 20 16 12 10 6 6 11 13 15
11 3 12 13 13 13 55 11 43 48 35 62 53 13 29 32 25 22 13 19 25 40 47 60 64 70 74 74 69 64 61 58 54 50 46 44 41 36 30 25 21 16 13 12 10 10 14 18 19
13 8 13 9 10 13 45 37 45 24 49 19 31 15 26 34 33 26 24 22 23 36 54 56 67 69 74 74 73 70 67 64 58 53 48 43 39 36 30 26 22 19 16 15 15 18 19 23 24
11 15 9 20 37 46 47 62 51 25 17 38 28 40 30 32 31 31 24 16 20 30 55 56 61 69 72 78 78 74 72 68 63 57 51 46 42 39 35 32 27 23 19 18 18 20 24 24 23
12 28 38 43 58 52 37 65 55 35 42 36 38 39 28 37 35 24 20 14 30 30 39 49 49 60 70 72 78 77 73 70 67 63 57 54 49 45 41 37 31 26 22 18 10 10 11 15 16
10 14 45 60 64 62 69 56 55 69 43 38 44 49 49 34 29 30 22 19 32 30 31 37 49 54 61 72 77 79 75 71 69 65 63 60 56 52 47 43 37 31 25 20 15 12 11 12 16
14 19 31 32 43 46 34 46 54 85 28 20 24 36 39 46 28 42 44 31 25 27 30 24 35 46 45 56 68 72 71 66 64 65 66 65 62 58 54 49 44 38 31 22 20 20 18 22 22
23 14 17 10 13 11 22 16 27 49 48 27 33 39 41 49 50 55 39 43 49 35 30 28 31 45 42 43 51 59 64 51 49 58 64 65 63 61 57 52 48 44 36 28 28 28 26 30 35
11 7 8 9 13 21 7 31 33 63 49 69 44 41 48 48 54 64 45 51 58 48 46 37 40 49 50 48 49 51 45 52 59 48 52 61 60 60 58 54 52 49 42 37 37 38 36 39 43
9 10 17 17 12 10 10 34 23 54 58 57 77 64 47 50 48 65 64 60 61 55 53 49 42 57 65 60 58 54 45 46 51 58 51 47 47 47 48 49 48 43 48 45 43 45 41 40 43
11 9 13 14 14 8 16 25 32 50 41 57 73 84 70 42 46 60 69 70 65 61 63 63 47 55 65 66 70 63 59 55 49 57 63 58 54 50 47 43 40 36 43 46 48 50 46 39 38
16 24 31 31 18 5 13 15 27 26 36 44 60 63 59 45 39 48 55 70 71 74 74 72 52 61 67 74 76 69 64 64 67 67 64 72 53 55 43 45 43 44 44 49 49 52 55 52 46
27 31 32 19 12 9 18 22 29 18 19 31 39 31 25 18 33 44 45 47 58 73 69 68 63 53 54 65 69 68 59 63 74 81 72 60 49 55 54 58 53 50 43 46 48 50 60 61 57
21 13 14 21 11 8 11 20 23 30 18 43 36 30 28 30 40 48 50 56 60 71 74 70 61 56 49 49 57 61 62 57 59 78 76 76 70 59 54 58 57 56 42 47 53 50 57 67 69
10 11 25 27 15 21 12 26 16 16 16 15 35 36 40 44 39 57 63 72 75 71 66 59 47 41 41 46 47 55 57 63 61 59 70 53 51 49 58 60 72 44 53 46 41 52 62 74 75
11 6 7 15 23 8 12 4 22 8 19 20 21 40 40 51 58 65 74 73 71 63 58 51 44 41 42 44 47 46 42 55 55 59 64 72 74 77 69 55 62 66 58 41 45 49 58 57 67
6 2 6 5 5 15 27 10 28 20 22 12 14 51 64 67 65 58 84 82 68 57 49 43 37 34 33 36 39 44 50 48 54 54 60 70 62 52 70 83 82 77 77 90 67 59 56 59 68
18 13 9 8 5 27 24 13 33 21 17 25 27 40 61 79 67 56 80 79 65 53 39 32 27 21 25 36 39 40 46 54 55 50 47 50 53 57 64 72 86 80 80 94 97 81 71 78 83
6 10 7 11 9 18 11 17 36 9 27 47 32 29 58 70 59 68 101 81 62 44 40 31 29 23 20 18 17 25 30 37 41 46 53 51 56 55 51 50 57 73 78 67 77 83 74 76 93
7 9 7 6 5 7 9 16 30 38 25 16 22 13 59 6 66 83 70 57 49 49 43 35 34 31 28 25 27 20 16 17 23 32 35 39 42 43 46 46 41 42 44 59 60 59 62 79 69
6 5 2 2 6 11 10 9 15 13 15 16 16 22 30 26 42 64 66 53 46 41 40 38 38 41 38 32 30 29 26 23 21 21 21 23 24 25 30 36 39 43 47 50 53 66 65 63 81
2 0 7 3 6 7 10 9 10 4 10 7 5 11 14 27 15 34 38 38 37 38 40 41 52 52 44 35 30 37 35 29 31 29 26 26 26 27 28 30 36 42 44 49 54 57 65 68 75
6 9 10 7 6 8 3 14 29 19 18 13 4 19 32 7 3 21 17 22 41 45 51 50 52 56 46 43 44 37 37 40 39 36 33 33 34 38 38 37 40 46 46 48 53 57 58 70 70
Wind_Direction_850mb
323 332 331 309 55 69 255 281 228 312 16 28 72 74 75 34 147 186 160 179 168 164 163 164 163 161 159 155 153 152 149 149 147 148 149 151 148 143 138 131 124 117 114 113 109 103 98 95 94
324 327 344 7 93 110 262 220 7 291 303 96 76 89 71 71 84 116 141 173 154 164 165 166 164 163 161 156 152 150 148 145 144 145 146 146 143 140 135 130 124 120 116 109 103 99 95 92 91
312 322 306 112 142 207 207 89 332 322 325 18 69 70 74 104 97 107 122 135 150 162 171 169 167 165 164 159 154 153 151 149 148 147 147 145 144 140 136 132 129 127 120 113 104 97 94 91 90
320 312 219 113 233 258 245 319 296 326 346 11 37 42 55 104 63 135 138 139 151 161 173 173 170 168 168 162 158 157 155 155 153 151 150 149 147 144 141 140 136 133 124 119 113 104 93 98 99
302 258 33 243 251 272 286 284 290 289 266 331 65 80 82 91 89 83 148 175 171 167 176 178 174 172 171 167 164 162 162 161 159 157 155 154 152 150 148 147 145 141 136 127 117 95 64 3 8
271 215 121 231 258 273 303 302 302 278 301 304 44 95 85 102 155 122 104 169 186 186 178 181 177 176 174 173 170 170 169 167 165 162 162 161 159 157 156 155 155 152 148 145 135 96 323 314 309
170 100 207 229 270 296 279 317 313 321 281 275 286 138 141 134 62 147 142 205 196 192 184 180 182 180 178 178 177 177 176 174 171 170 169 168 168 165 165 167 168 168 168 173 173 241 288 302 305
217 125 208 221 246 268 277 315 299 320 304 284 260 164 200 158 121 110 147 182 208 188 194 185 184 185 182 181 183 184 183 183 180 178 178 176 177 177 176 178 184 188 196 207 226 279 302 312 312
199 124 222 224 228 262 287 297 294 308 295 217 255 261 216 166 172 138 105 162 181 189 194 190 188 190 189 186 185 188 191 190 189 188 188 187 186 186 188 190 199 210 226 246 264 290 306 305 309
179 192 226 211 248 261 280 280 294 320 301 284 220 220 167 176 182 169 111 125 189 184 187 193 192 195 194 193 191 190 194 197 197 196 196 197 197 196 198 205 214 225 241 261 281 291 297 303 314
207 233 244 267 260 265 270 278 282 262 278 281 255 237 190 183 186 189 170 132 154 188 190 191 197 198 200 200 199 196 198 199 201 202 203 204 207 207 208 213 221 234 250 266 283 289 293 304 306
248 261 242 251 254 254 262 273 273 257 253 274 283 285 236 175 171 166 151 155 147 171 191 202 201 203 204 209 208 206 204 205 206 206 207 210 211 215 217 221 227 237 246 252 266 300 305 322 325
187 259 256 253 251 250 255 260 265 268 257 257 274 281 278 217 207 215 213 153 150 163 177 191 209 207 213 210 210 214 211 212 213 212 212 214 216 218 222 225 231 235 236 233 252 275 283 300 311
296 289 284 280 269 263 256 266 267 266 255 229 258 260 283 244 239 214 221 217 196 193 186 205 204 212 214 216 216 214 217 219 223 223 222 219 220 223 225 229 233 237 238 241 258 273 277 284 291
311 311 314 276 256 247 276 276 252 273 285 270 266 268 266 248 250 221 214 230 222 216 216 216 227 207 208 215 213 219 220 220 227 233 233 231 227 225 230 235 240 244 247 251 259 269 276 285 293
339 360 330 284 311 292 187 267 272 280 282 285 272 263 252 249 248 224 236 245 233 218 225 213 215 216 211 209 211 214 218 228 228 226 228 231 231 232 232 235 243 247 249 252 261 268 274 279 286
338 261 285 305 257 253 182 277 265 275 265 260 272 268 237 234 238 237 237 236 229 226 224 223 208 210 204 208 211 214 223 231 231 228 222 218 222 226 230 235 240 245 246 247 253 261 261 270 275
249 265 263 272 288 212 264 257 272 280 259 250 250 258 256 237 232 227 232 227 220 226 223 225 203 201 203 209 212 215 226 230 229 229 226 221 217 218 225 235 240 241 249 252 250 254 252 258 265
246 260 265 274 263 273 246 263 285 282 292 270 240 235 251 258 257 227 229 225 216 217 216 219 209 201 204 207 216 222 229 225 227 237 227 228 224 224 227 241 246 248 254 263 265 264 260 263 271
249 252 260 263 252 252 289 278 284 285 264 259 233 215 217 250 202 201 206 202 208 213 213 217 219 216 214 218 220 225 232 238 221 218 216 212 214 232 249 247 249 249 255 263 263 270 266 264 267
260 241 262 263 265 271 328 294 292 291 267 273 235 241 251 240 211 202 201 200 207 211 213 216 220 221 224 228 231 231 232 239 234 227 222 228 229 243 242 250 257 249 256 260 267 269 271 271 274
295 352 7 327 298 277 166 271 276 273 295 286 281 289 271 263 249 221 217 198 202 205 206 211 212 213 225 231 236 241 239 238 237 237 232 225 211 225 250 245 246 242 262 267 269 272 273 269 274
253 347 2 344 326 290 249 204 268 330 293 279 287 297 295 296 294 249 220 214 199 190 194 201 207 215 226 239 237 243 246 240 241 246 249 235 237 243 234 242 253 243 251 266 275 273 280 286 288
275 335 358 7 61 277 294 207 268 254 258 266 264 289 297 299 293 254 214 197 179 177 187 198 210 224 234 239 245 250 249 247 245 245 246 242 237 243 240 237 236 261 255 251 263 271 285 292 299
48 46 333 331 290 261 260 262 250 270 264 243 260 299 304 289 282 227 191 171 170 178 195 202 213 217 230 241 249 245 240 239 239 237 236 237 241 244 243 244 242 245 258 258 257 265 273 274 276
124 140 180 242 254 283 10 252 255 284 296 264 265 283 334 290 218 191 175 174 178 182 184 187 187 196 203 214 248 252 244 237 241 246 248 246 244 241 241 245 248 246 242 247 254 259 251 258 257
144 179 172 223 324 286 234 275 276 273 283 264 234 6 347 218 167 166 171 178 182 182 182 186 190 202 210 229 254 242 245 246 257 253 249 246 243 245 241 241 248 246 241 239 242 255 253 245 241
152 153 208 285 264 258 268 261 254 359 355 13 352 39 16 327 168 173 179 187 187 186 186 189 196 208 221 236 230 241 242 254 259 257 256 258 255 253 249 247 256 256 254 254 244 246 251 243 239
248 99 30 204 184 225 269 267 325 323 280 73 32 357 1 338 159 158 160 167 172 184 194 201 205 210 224 225 235 237 239 251 251 256 263 268 271 279 281 270 264 270 263 261 263 261 257 264 263
141 167 162 156 259 230 231 241 258 246 289 301 343 181 229 326 18 342 341 222 188 197 200 208 213 217 230 226 224 228 237 243 247 248 258 261 268 274 279 281 278 276 274 272 269 268 259 258 263